[[{"header":{"parameterUnit":"m.s-1","parameterCategory":1,"la1":30.2991,"la2":30.254,"lo1":-89.0895,"lo2":-89.0444,"dy":0.0017,"dx":0.0017,"nx":28,"ny":28,"refTime":"2024-03-24T21:00:00:Z","depth":0,"parameterNumber":2,"parameterNumberName":"U-component_of_WINDS"},"data":[0,0,0,0,0,0,0,0,0,0,0,0,0,0,0,0,0,0,0,0,0,0,0,0,0,0,0,0,0,0,0,0,0,0,0,0,0,0,0,0,0,0,0,0,0,0,0,0,0,0,0,0,0,0,0,0,0,0,1.349,1.3489,0,1.3402,1.3401,1.34,1.3356,1.3356,1.3356,1.3356,1.327,1.3268,1.3266,0,0,0,0,0,0,0,0,0,0,0,0,0,1.3626,1.3623,1.349,1.3489,1.3488,1.3402,1.3401,1.34,1.3356,1.3356,1.3356,1.3356,1.3271,1.3268,1.3265,0,0,0,0,0,0,0,0,0,0,0,0,0,1.3555,1.3623,1.349,1.3455,1.3451,1.3403,1.3401,1.34,1.3356,1.3356,1.3356,1.3355,1.3272,1.3268,1.3265,1.3246,0,0,1.3255,1.3253,0,0,0,0,0,0,0,0,1.3559,1.355,1.3462,1.3458,1.3453,1.339,1.3417,1.3348,1.3356,1.3392,1.3356,1.3355,1.331,1.3304,1.3287,1.3242,1.3238,1.3255,1.3253,1.3251,1.325,0,0,0,0,0,0,0,1.3564,1.3554,1.3455,1.346,1.3455,1.3446,1.3436,1.3404,1.3353,1.3389,1.3386,1.3375,1.3308,1.3291,1.3285,1.3237,1.3255,1.3252,1.325,1.3248,1.3173,1.3173,0,0,0,0,0,0,1.3574,1.3558,1.3458,1.3453,1.3507,1.3444,1.3432,1.341,1.3353,1.3344,1.3376,1.3374,1.3297,1.3289,1.3282,1.3256,1.3251,1.3248,1.3246,1.3173,1.3173,1.3173,0,0,0,0,0,0,1.3577,1.3565,1.3462,1.3504,1.3491,1.3441,1.3417,1.3409,1.3391,1.3343,1.3334,1.3367,1.3296,1.3287,1.3255,1.3253,1.3246,1.3243,1.3173,1.3173,1.3173,1.3204,0,0,0,0,0,0,1.3581,1.3567,1.3557,1.3505,1.3488,1.3435,1.3417,1.3407,1.3385,1.3382,1.3332,1.3324,1.3295,1.326,1.3252,1.3248,1.3241,1.3173,1.3173,1.3173,1.3203,1.3205,1.3207,0,0,0,0,0,1.3586,1.357,1.3557,1.3545,1.3475,1.3434,1.3425,1.3391,1.3385,1.3376,1.3345,1.3326,1.3254,1.3257,1.3247,1.3243,1.3173,1.3173,1.3173,1.3202,1.3205,1.3207,0,0,0,0,0,0,1.3625,1.3563,1.3547,1.3514,1.348,1.3427,1.3414,1.3395,1.3363,1.3361,1.3322,1.3311,1.3284,1.326,1.3264,1.3222,1.3212,1.321,1.3238,1.324,1.3242,1.3248,1.3238,0,0,0,0,0,1.363,1.36,1.3548,1.3523,1.3507,1.3464,1.3445,1.3421,1.3385,1.3371,1.3338,1.3305,1.3275,1.3256,1.3226,1.32,1.3189,1.3192,1.3194,1.3196,1.3194,1.318,1.3181,1.3173,1.3173,1.3173,0,0,1.3639,1.3601,1.3585,1.353,1.3501,1.3473,1.3452,1.3423,1.3402,1.3367,1.3335,1.331,1.3271,1.3242,1.3228,1.3221,1.3195,1.3196,1.3198,1.3195,1.318,1.3181,1.3182,1.3173,1.3173,1.3173,0,0,1.3641,1.3609,1.3586,1.3557,1.3513,1.3485,1.348,1.343,1.3412,1.3379,1.3352,1.3328,1.3277,1.3251,1.3231,1.3226,1.3207,1.3218,1.3228,1.3214,1.3215,1.3216,1.3215,1.3215,1.3216,1.3217,1.3217,0,1.3659,1.3614,1.3577,1.3549,1.3527,1.3493,1.347,1.3445,1.3394,1.338,1.3374,1.331,1.3281,1.3246,1.3245,1.323,1.3224,1.3222,1.3218,1.3218,1.3218,1.3216,1.3216,1.3218,1.3218,1.3218,1.3218,0,1.3638,1.3608,1.3594,1.3545,1.3521,1.3496,1.3458,1.3438,1.3418,1.3391,1.3359,1.3324,1.3286,1.3277,1.3256,1.324,1.3237,1.3225,1.3214,1.3221,1.3219,1.3218,1.322,1.322,1.3219,1.3219,0,0,1.3661,1.3592,1.3588,1.3566,1.3516,1.3493,1.3468,1.343,1.3415,1.3382,1.3361,1.3319,1.3308,1.3285,1.3262,1.3251,1.3251,1.324,1.3239,1.3244,1.3231,1.3241,1.3241,1.3238,1.3238,1.3238,1.3235,0,1.3657,1.3608,1.3575,1.354,1.3512,1.3481,1.3459,1.3428,1.3403,1.3377,1.3351,1.3322,1.3308,1.3295,1.3282,1.3253,1.3248,1.3253,1.322,1.3219,1.323,1.324,1.3249,1.3248,1.3234,1.3234,1.3234,0,1.3644,1.3611,1.3573,1.3528,1.3515,1.3496,1.346,1.3435,1.34,1.3383,1.3358,1.3335,1.3309,1.3302,1.3267,1.3271,1.3256,1.324,1.3239,1.3235,1.3226,1.3236,1.3247,1.3247,1.3232,1.3232,1.3232,0,1.3665,1.3612,1.3582,1.3564,1.351,1.3498,1.3475,1.3439,1.342,1.3389,1.3376,1.3343,1.3325,1.3302,1.3271,1.3268,1.324,1.3229,1.3226,1.3227,1.3221,1.3222,1.323,1.3211,1.3211,1.3211,1.3211,0,1.3664,1.3642,1.3591,1.3573,1.3549,1.3512,1.349,1.3465,1.3434,1.3412,1.3383,1.3364,1.3324,1.3301,1.3277,1.3253,1.3245,1.3231,1.3225,1.3234,1.3235,1.3223,1.3222,1.3211,1.3211,1.3211,1.3211,0,1.3683,1.3648,1.3614,1.3566,1.3553,1.3538,1.3497,1.348,1.3454,1.3427,1.3419,1.3379,1.3349,1.3317,1.3277,1.3261,1.3238,1.3229,1.325,1.3246,1.3245,1.3246,1.3245,1.3244,1.3227,1.3227,1.3227,0,1.3684,1.3666,1.3617,1.3599,1.3577,1.355,1.3529,1.3494,1.3474,1.3434,1.3422,1.339,1.3363,1.3318,1.3286,1.3256,1.3247,1.3249,1.3242,1.3252,1.3247,1.3249,1.3247,1.3251,1.3251,1.3251,1.3251,0,1.369,1.3674,1.3644,1.361,1.3586,1.3558,1.3528,1.3516,1.3475,1.3455,1.3424,1.3403,1.3363,1.3333,1.3299,1.3277,1.3258,1.3254,1.3252,1.326,1.3273,1.3267,1.3255,1.3254,1.3254,1.3254,1.3253,1.3253,1.3699,1.3683,1.3646,1.3615,1.3589,1.3563,1.3544,1.3516,1.349,1.3453,1.3435,1.3405,1.3372,1.3324,1.3304,1.3281,1.3275,1.3271,1.3271,1.327,1.3273,1.3277,1.3275,1.3275,1.3275,1.3275,1.3274,0,1.3704,1.3679,1.3651,1.3611,1.3587,1.3571,1.3538,1.352,1.3493,1.3463,1.3437,1.3403,1.3374,1.3341,1.331,1.3299,1.3289,1.3292,1.3292,1.3288,1.328,1.3285,1.33,1.33,1.33,1.33,1.33,1.33,1.3704,1.3675,1.3656,1.3615,1.3591,1.356,1.3543,1.3519,1.3495,1.3458,1.3434,1.3412,1.3381,1.3349,1.3322,1.3313,1.3303,1.3309,1.3297,1.3291,1.3288,1.3286,1.3291,1.3307,1.3307,1.3307,1.3307,1.3307]},{"header":{"parameterUnit":"m.s-1","parameterCategory":1,"la1":30.2991,"la2":30.254,"lo1":-89.0895,"lo2":-89.0444,"dy":0.0017,"dx":0.0017,"nx":28,"ny":28,"refTime":"2024-03-24T21:00:00:Z","depth":0,"parameterNumber":3,"parameterNumberName":"V-component_of_WINDS"},"data":[0,0,0,0,0,0,0,0,0,0,0,0,0,0,0,0,0,0,0,0,0,0,0,0,0,0,0,0,0,0,0,0,0,0,0,0,0,0,0,0,0,0,0,0,0,0,0,0,0,0,0,0,0,0,0,0,0,0,2.9715,2.9716,0,2.9865,2.9867,2.9869,2.9897,2.9896,2.9895,2.9894,3.0044,3.0049,3.0054,0,0,0,0,0,0,0,0,0,0,0,0,0,2.9443,2.9448,2.9714,2.9716,2.9718,2.9865,2.9867,2.9869,2.9898,2.9896,2.9895,2.9893,3.0042,3.0048,3.0055,0,0,0,0,0,0,0,0,0,0,0,0,0,2.9574,2.945,2.9714,2.975,2.9755,2.9865,2.9867,2.987,2.9898,2.9896,2.9894,2.9893,3.004,3.0048,3.0055,3.0139,0,0,3.0079,3.0082,0,0,0,0,0,0,0,0,2.9567,2.9584,2.9743,2.9748,2.9753,2.9861,2.9827,2.996,2.9898,2.9843,2.9894,2.9892,2.9984,2.9996,3.0029,3.0146,3.0152,3.008,3.0084,3.0087,3.009,0,0,0,0,0,0,0,2.9558,2.9578,2.9774,2.9745,2.9752,2.9756,2.9773,2.9852,2.9922,2.9848,2.9851,2.9868,2.9987,3.0021,3.0032,3.0154,3.0079,3.0086,3.0091,3.0094,3.0341,3.0343,0,0,0,0,0,0,2.9543,2.957,2.9769,2.9779,2.9654,2.9763,2.9781,2.9828,2.9921,2.9934,2.987,2.9869,3.0009,3.0023,3.0038,3.0138,3.0087,3.0095,3.0099,3.0339,3.0342,3.0344,0,0,0,0,0,0,2.9537,2.9561,2.9763,2.9675,2.9701,2.9769,2.9822,2.9832,2.9867,2.9938,2.9949,2.9892,3.0008,3.0027,3.0112,3.0144,3.0098,3.0105,3.0337,3.034,3.0343,3.0341,0,0,0,0,0,0,2.9529,2.9558,2.9593,2.9676,2.9706,2.9838,2.9824,2.9836,2.988,2.9881,2.9962,2.9974,3.0008,3.0101,3.012,3.0153,3.0111,3.0335,3.0339,3.0342,3.0339,3.0344,3.0348,0,0,0,0,0,2.9519,2.9586,2.9594,2.9618,2.9751,2.984,2.9857,2.9896,2.9883,2.9916,2.9961,2.9971,3.0137,3.0109,3.0131,3.0167,3.0333,3.0337,3.0342,3.0337,3.0343,3.0348,0,0,0,0,0,0,2.9505,2.9598,2.9608,2.9704,2.9764,2.9844,2.9888,2.9902,2.9966,2.9964,3.0008,3.0026,3.0108,3.0146,3.0114,3.025,3.0234,3.0243,3.0222,3.0229,3.0233,3.0222,3.0117,0,0,0,0,0,2.9513,2.958,2.9657,2.9734,2.9763,2.982,2.9861,2.9886,2.9949,2.9974,3.0025,3.0084,3.0149,3.0191,3.0255,3.0344,3.036,3.0379,3.0384,3.0387,3.0394,3.0439,3.0448,3.0359,3.0359,3.0359,0,0,2.9531,2.959,2.9629,2.9732,2.9782,2.9846,2.9842,2.9912,2.9959,2.9984,3.0067,3.0106,3.0175,3.0261,3.0302,3.0296,3.0422,3.0393,3.0395,3.04,3.0445,3.0453,3.0461,3.0362,3.0361,3.0361,0,0,2.9595,2.9648,2.9716,2.9765,2.9839,2.9876,2.9892,2.997,2.9997,3.0081,3.01,3.0156,3.0268,3.0315,3.0353,3.043,3.044,3.0449,3.0473,3.0517,3.0524,3.053,3.0554,3.0563,3.0456,3.0456,3.0456,0,2.9607,2.9708,2.9749,2.9818,2.9861,2.9886,2.9953,2.9998,3.0088,3.0116,3.0108,3.0246,3.0295,3.039,3.0408,3.044,3.0456,3.0441,3.052,3.0527,3.0533,3.0557,3.0566,3.0457,3.0457,3.0457,3.0457,0,2.9717,2.9786,2.9832,2.9919,2.9967,3.0035,3.0083,3.0126,3.0145,3.0182,3.0265,3.0323,3.0397,3.0422,3.0442,3.0519,3.0512,3.0511,3.0496,3.0541,3.0564,3.0574,3.0457,3.0457,3.0457,3.0457,0,0,2.9779,2.9885,2.9901,2.9939,3.0021,3.0074,3.014,3.0213,3.0248,3.0308,3.0362,3.0455,3.0453,3.0497,3.0521,3.056,3.0612,3.0554,3.0556,3.0561,3.0696,3.0695,3.0705,3.0619,3.0621,3.0623,3.0689,0,2.9852,2.9973,3.001,3.011,3.0172,3.0194,3.0252,3.0306,3.0341,3.0396,3.0433,3.0497,3.0492,3.0518,3.0557,3.0598,3.064,3.0594,3.0668,3.067,3.0649,3.0718,3.0718,3.0778,3.0699,3.07,3.0702,0,2.9954,3.0015,3.0122,3.0191,3.0219,3.027,3.0337,3.0391,3.0451,3.0473,3.052,3.054,3.0606,3.0587,3.0676,3.0644,3.0676,3.07,3.0703,3.0711,3.0688,3.0725,3.0799,3.0807,3.0717,3.0715,3.0714,0,2.9984,3.0094,3.0171,3.0203,3.0287,3.0322,3.0358,3.0417,3.0456,3.0515,3.054,3.0605,3.064,3.0688,3.0724,3.0707,3.0809,3.0793,3.0826,3.0825,3.0847,3.0845,3.0925,3.087,3.087,3.0869,3.0869,0,3.0061,3.0124,3.0186,3.0233,3.0303,3.0343,3.0411,3.0447,3.0498,3.0551,3.0574,3.0621,3.0667,3.0719,3.0748,3.0815,3.0831,3.0849,3.0855,3.0846,3.0844,3.0867,3.0863,3.0872,3.0871,3.0871,3.087,0,3.0108,3.0152,3.0236,3.0308,3.0327,3.0375,3.0435,3.048,3.0514,3.058,3.0597,3.065,3.0713,3.0754,3.0834,3.0852,3.0926,3.0932,3.0906,3.0908,3.0938,3.0934,3.1035,3.1049,3.0986,3.0987,3.0987,0,3.0153,3.0202,3.0278,3.0315,3.0352,3.0411,3.0452,3.0491,3.0532,3.0601,3.0637,3.0701,3.0755,3.0854,3.0898,3.0958,3.0964,3.0995,3.0974,3.0961,3.0962,3.0958,3.0961,3.0999,3.0999,3.1,3.1,0,3.0227,3.0246,3.0304,3.0369,3.0417,3.047,3.0522,3.055,3.0598,3.0642,3.0707,3.0748,3.0829,3.0891,3.0955,3.0989,3.1001,3.1006,3.1017,3.1007,3.0989,3.0997,3.0913,3.1004,3.1004,3.1003,3.1003,3.1003,3.0274,3.0317,3.0376,3.0439,3.0482,3.053,3.0574,3.0613,3.0669,3.0738,3.0757,3.0824,3.0878,3.0964,3.0999,3.105,3.1046,3.1061,3.1065,3.1068,3.1067,3.0982,3.1061,3.1061,3.1061,3.1061,3.1061,0,3.0347,3.0385,3.0443,3.0515,3.0563,3.0572,3.0629,3.0668,3.0727,3.0777,3.0829,3.0901,3.096,3.1008,3.1068,3.1099,3.1105,3.1113,3.111,3.1117,3.1068,3.1052,3.1106,3.1106,3.1106,3.1106,3.1106,3.1106,3.0391,3.0463,3.0488,3.058,3.0618,3.0684,3.0715,3.0758,3.0798,3.0877,3.0927,3.0958,3.1005,3.1069,3.1122,3.1134,3.1154,3.116,3.1173,3.1126,3.1121,3.1116,3.1101,3.1165,3.1165,3.1217,3.1218,3.1218]}]]